Regional Weather Roundup
Issued by NWS

Home | Current Version | Previous Version | Text Only | Print | Product List | Glossary On
Versions: 1 2 3 4 5 6 7 8 9 10 11 12 13 14 15 16 17 18 19 20 21 22 23 24 25 26 27 28 29 30 31 32 33 34 35 36 37 38 39 40 41 42 43 44 45 46 47 48 49 50
000
ASUS43 KDTX 240310
RWRMI
MICHIGAN HOURLY REGIONAL WEATHER ROUNDUP
NATIONAL WEATHER SERVICE DETROIT/PONTIAC MI
1100 PM EDT WED MAY 23 2018

NOTE: "FAIR" INDICATES FEW OR NO CLOUDS BELOW 12,000 FEET WITH NO
SIGNIFICANT WEATHER AND/OR OBSTRUCTION TO VISIBILITY.

MIZ047>049-052>055-059>063-066>070-074>076-081>083-240400-
SOUTHEAST LOWER MICHIGAN

CITY           SKY/WX    TMP DP  RH WIND       PRES   REMARKS
ADRIAN         FAIR      63  57  81 CALM      30.20R
ALMA           MOCLDY    64  56  78 SW6       30.19R
ANN ARBOR      FAIR      58  54  86 CALM      30.19R
BAD AXE        FAIR      56  49  77 SE3       30.18R
CARO           FAIR      57  52  82 CALM      30.17R
DETROIT CITY   FAIR      66  53  63 CALM      30.18R
DETROIT        FAIR      65  53  65 S5        30.19R
FLINT          FAIR      58  51  78 CALM      30.18R
GROSSE ILE     FAIR      62  56  81 CALM      30.18R
HILLSDALE      FAIR      57  52  82 CALM      30.21R
HOWELL         FAIR      62  51  68 CALM      30.19R

CITY           SKY/WX    TMP DP  RH WIND       PRES   REMARKS
JACKSON        FAIR      58  53  84 CALM      30.20R
LAMBERTVILLE   FAIR      64  55  70 CALM      30.19R
LANSING        FAIR      62  55  77 CALM      30.20R
LAPEER         FAIR      54  49  83 CALM      30.19R
MASON          FAIR      61  56  85 CALM      30.20R
MONROE         FAIR      64  56  77 S6        30.18R
MT. CLEMENS    PTCLDY    61  61 100 CALM      30.17R
PONTIAC        MOCLDY    68  53  58 CALM      30.18R
PORT HOPE        N/A     57  48  72 S3        30.15S
PORT HURON     FAIR      52  45  76 CALM      30.19S
TRI CITIES     FAIR      66  55  67 W8        30.17R
MIDLAND        FAIR      67  54  61 SW5       30.16R
TROY           FAIR      69  51  54 CALM      30.20R
SAGINAW HB     FAIR      66  48  52 SW6       30.17R
$$
MIZ043>046-050>051-056>058-064>065-071>073-077>080-240400-
SOUTHWEST LOWER MICHIGAN

CITY           SKY/WX    TMP DP  RH WIND       PRES   REMARKS
BATTLE CREEK   FAIR      63  52  67 SW3       30.21R
BENTON HARBOR  FAIR      57  53  86 CALM      30.19R
BIG RAPIDS     FAIR      60  53  78 CALM      30.18S
COLDWATER      FAIR      61  55  80 CALM      30.20R
FREMONT        FAIR      57  54  90 CALM      30.19R
HOLLAND        FAIR      59  55  87 CALM      30.20R
GRAND RAPIDS   MOCLDY    63  55  75 CALM      30.20R
IONIA          FAIR      64  54  69 CALM      30.20R
KALAMAZOO      FAIR      64  56  75 CALM      30.20R
LUDINGTON      FAIR      55  55 100 CALM      30.17S
MARSHALL       FAIR      60  51  69 CALM      30.20R
MOUNT PLEASANT FAIR      67  55  66 SW5       30.18R
MUSKEGON       MOCLDY    55  53  93 CALM      30.20R
SOUTH HAVEN    FAIR      56  54  91 CALM      30.20R
$$
MIZ016>042-240400-
NORTHERN LOWER MICHIGAN

CITY           SKY/WX    TMP DP  RH WIND       PRES   REMARKS
ALPENA         FAIR      57  47  69 CALM      30.15S
BEAVER ISLAND  FAIR      45  44  97 CALM      30.17R FOG
BELLAIRE       FAIR      55  53  94 CALM      30.17R
CADILLAC       FAIR      54  46  74 CALM      30.19R
CHARLEVOIX     FAIR      48  48 100 SE3       30.20R
FRANKFORT      FAIR      56  54  95 CALM      30.17R
GAYLORD        FAIR      64  49  57 CALM      30.18R
GRAYLING       FAIR      60  52  74 CALM      30.17R
HARBOR SPRINGS FOG       46  45  99 CALM      30.17R VSB 1/4
HOUGHTON LAKE  FAIR      63  53  70 CALM      30.18R
MANISTEE       FAIR      56  52  86 CALM      30.17R
OSCODA         FAIR      58  38  46 CALM      30.15S
PELLSTON       FAIR      57  53  86 W3        30.16R
ROGERS CITY    FAIR      57  46  65 CALM      30.15S
TRAVERSE CITY  FAIR      54  50  86 CALM      30.16R
$$
MIZ007>008-015-240400-
EASTERN UPPER MICHIGAN

CITY           SKY/WX    TMP DP  RH WIND       PRES   REMARKS
KINROSS        FAIR      65  48  54 SW6       30.14S
MACKINAC ISLAN MOCLDY    47  47 100 W9        30.15S FOG
NEWBERRY       FAIR      58  56  94 SW10      30.14S
S. S. MARIE    FAIR      61  47  59 W3        30.13R
MUNISING         N/A     55  47  74 S3        30.12S
$$
MIZ004>006-011>014-085-240400-
CENTRAL UPPER MICHIGAN

CITY           SKY/WX    TMP DP  RH WIND       PRES   REMARKS
MANISTIQUE     FOG       46  44  94 CALM      30.15R VSB 1/4
ESCANABA       FAIR      56  54  93 E3        30.13S
MENOMINEE      FAIR      66  57  72 SW5       30.13S
SAWYER-GWINN   FAIR      60  47  62 CALM      30.14S
$$
MIZ001>003-009>011-084-240400-
WESTERN UPPER MICHIGAN

CITY           SKY/WX    TMP DP  RH WIND       PRES   REMARKS
IRON MOUNTAIN  FAIR      67  53  61 SE5       30.11R
HOUGHTON       FAIR      55  48  77 E3        30.11S
COPPER HARBOR    N/A     58  46  64 SW10G17   30.09R
IRONWOOD       FAIR      62  58  86 CALM      30.12R
$$

ABBREVIATIONS USED IN REMARKS
   TC - TEMPERATURE IN CELSIUS
  WCI - WIND CHILL INDEX
   HX - HEAT INDEX
  VSB - VISIBILITY




USA.gov is the U.S. government's official web portal to all federal, state and local government web resources and services.